Weather History for Catania, Italy

Change the Weather History Date:

Wednesday, January 30, 2013

  Actual Average Record
Temperature  
Mean Temperature 50 °F -  
Max Temperature 62 °F 62 °F 68 °F (2008)
Min Temperature 37 °F 42 °F 32 °F (1997)
Degree Days  
Heating Degree Days 16    
Moisture  
Dew Point 40 °F    
Average Humidity 75    
Maximum Humidity 93    
Minimum Humidity 42    
Precipitation  
Precipitation 0.00 in 0.07 in - ()
Sea Level Pressure  
Sea Level Pressure 30.18 in    
Wind  
Wind Speed 5 mph ()    
Max Wind Speed 10 mph    
Max Gust Speed -    
Visibility 5.9 miles    
Events      
Averages and records for this station are not official NWS values.
T = Trace of Precipitation, MM = Missing Value Source: Averaged Metar Reports

Daily Weather History Graph

Daily Weather History Graph

Search for Another Location

Airport:

Trip Planner

Search our weather history database for the weather conditions in past years. The results will help you decide how hot, cold, wet, or windy it might be!

Date:

Astronomy

Jan. 30, 2013 Rise Set
Actual Time 7:04 AM CET 5:21 PM CET
Civil Twilight 6:37 AM CET 5:49 PM CET
Nautical Twilight 6:05 AM CET 6:20 PM CET
Astronomical Twilight 5:35 AM CET 6:51 PM CET
Moon 8:56 PM CET (1/30) 8:28 AM CET (1/30)
Length of Visible Light 11h 12m
Length of Day
10h 16m
Waning Gibbous, 89% of the Moon is Illuminated
Jan 30
Waning Gibbous
Feb 3
Last Quarter
Feb 10
New
Feb 17
First Quarter
Feb 25
Full

Hourly Weather History & Observations

Time (CET) Temp. Windchill Dew Point Humidity Pressure Visibility Wind Dir Wind Speed Gust Speed Precip Events Conditions
12:20 AM 39.2 °F 34.2 °F 37.4 °F 93% 30.24 in 5.0 mi WSW 6.9 mph - N/A   Partly Cloudy
12:50 AM 37.4 °F 31.4 °F 35.6 °F 93% 30.21 in 4.3 mi West 8.1 mph - N/A   Partly Cloudy
1:20 AM 39.2 °F 35.9 °F 35.6 °F 87% 30.24 in 5.0 mi WSW 4.6 mph - N/A   Scattered Clouds
1:50 AM 39.2 °F 33.6 °F 37.4 °F 93% 30.24 in 5.0 mi WSW 8.1 mph - N/A   Scattered Clouds
2:20 AM 39.2 °F - 37.4 °F 93% 30.24 in 6.2 mi Variable 2.3 mph - N/A   Scattered Clouds
2:50 AM 39.2 °F 35.0 °F 37.4 °F 93% 30.21 in 6.2 mi WSW 5.8 mph - N/A   Scattered Clouds
3:20 AM 41.0 °F 36.4 °F 37.4 °F 87% 30.24 in 6.2 mi WSW 6.9 mph - N/A   Scattered Clouds
3:50 AM 41.0 °F 38.0 °F 37.4 °F 87% 30.21 in 6.2 mi WSW 4.6 mph - N/A   Scattered Clouds
4:20 AM 41.0 °F 38.0 °F 37.4 °F 87% 30.21 in 6.2 mi WSW 4.6 mph - N/A   Scattered Clouds
4:50 AM 41.0 °F 38.0 °F 37.4 °F 87% 30.21 in 6.2 mi West 4.6 mph - N/A   Mostly Cloudy
5:20 AM 41.0 °F 38.0 °F 37.4 °F 87% 30.21 in 6.2 mi SSW 4.6 mph - N/A   Mostly Cloudy
5:50 AM 41.0 °F 38.0 °F 37.4 °F 87% 30.21 in 6.2 mi WSW 4.6 mph - N/A   Mostly Cloudy
6:20 AM 39.2 °F 35.0 °F 35.6 °F 87% 30.21 in 6.2 mi West 5.8 mph - N/A   Scattered Clouds
6:50 AM 39.2 °F 34.2 °F 35.6 °F 87% 30.21 in 6.2 mi WSW 6.9 mph - N/A   Scattered Clouds
7:20 AM 41.0 °F 36.4 °F 37.4 °F 87% 30.21 in 6.2 mi West 6.9 mph - N/A   Scattered Clouds
7:50 AM 42.8 °F 38.6 °F 37.4 °F 81% 30.21 in 6.2 mi WNW 6.9 mph - N/A   Partly Cloudy
8:20 AM 46.4 °F 43.5 °F 41.0 °F 81% 30.21 in 6.2 mi West 5.8 mph - N/A   Partly Cloudy
8:50 AM 50.0 °F - 41.0 °F 71% 30.21 in - WSW 5.8 mph - N/A   Clear
9:20 AM 50.0 °F - 42.8 °F 76% 30.21 in - WSW 6.9 mph - N/A   Clear
9:50 AM 51.8 °F - 41.0 °F 67% 30.21 in - West 8.1 mph - N/A   Clear
10:20 AM 55.4 °F - 41.0 °F 58% 30.21 in - West 10.4 mph - N/A   Clear
10:50 AM 55.4 °F - 41.0 °F 58% 30.21 in - WSW 5.8 mph - N/A   Clear
11:20 AM 57.2 °F - 41.0 °F 55% 30.21 in - SW 4.6 mph - N/A   Clear
11:50 AM 57.2 °F - 39.2 °F 51% 30.21 in - WSW 5.8 mph - N/A   Clear
12:50 PM 59.0 °F - 41.0 °F 51% 30.18 in - WSW 9.2 mph - N/A   Clear
1:20 PM 60.8 °F - 39.2 °F 45% 30.15 in - SW 6.9 mph - N/A   Clear
1:50 PM 62.6 °F - 41.0 °F 45% 30.15 in - West 5.8 mph - N/A   Clear
2:20 PM 62.6 °F - 39.2 °F 42% 30.15 in - SSW 4.6 mph - N/A   Clear
2:50 PM 59.0 °F - 42.8 °F 55% 30.15 in - Variable 9.2 mph - N/A   Clear
3:20 PM 59.0 °F - 41.0 °F 51% 30.15 in - East 9.2 mph - N/A   Clear
3:50 PM 57.2 °F - 42.8 °F 59% 30.15 in - East 8.1 mph - N/A   Clear
4:20 PM 57.2 °F - 44.6 °F 63% 30.15 in - East 8.1 mph - N/A   Clear
4:50 PM 55.4 °F - 46.4 °F 72% 30.15 in - East 6.9 mph - N/A   Clear
5:20 PM 55.4 °F - 46.4 °F 72% 30.15 in - ESE 3.5 mph - N/A   Clear
5:50 PM 53.6 °F - 44.6 °F 72% 30.15 in - Variable 1.2 mph - N/A   Clear
6:20 PM 51.8 °F - 44.6 °F 76% 30.15 in - South 3.5 mph - N/A   Clear
6:50 PM 51.8 °F - 42.8 °F 71% 30.15 in - South 3.5 mph - N/A   Clear
7:20 PM 51.8 °F - 42.8 °F 71% 30.15 in - Variable 2.3 mph - N/A   Clear
7:50 PM 51.8 °F - 42.8 °F 71% 30.15 in - SSW 3.5 mph - N/A   Clear
8:20 PM 48.2 °F - 41.0 °F 76% 30.15 in - WSW 3.5 mph - N/A   Clear
8:50 PM 48.2 °F - 41.0 °F 76% 30.15 in - SW 3.5 mph - N/A   Clear
9:20 PM 44.6 °F - 39.2 °F 81% 30.15 in - Variable 2.3 mph - N/A   Clear
9:50 PM 42.8 °F - 39.2 °F 87% 30.15 in - Variable 2.3 mph - N/A   Clear
10:20 PM 42.8 °F 41.1 °F 39.2 °F 87% 30.15 in - West 3.5 mph - N/A   Clear
10:50 PM 41.0 °F 39.0 °F 37.4 °F 87% 30.15 in - South 3.5 mph - N/A   Clear
11:20 PM 41.0 °F - 39.2 °F 93% 30.15 in - Variable 2.3 mph - N/A   Clear
11:50 PM 41.0 °F 36.4 °F 37.4 °F 87% 30.15 in - West 6.9 mph - N/A   Clear